www.pogodaiklimat.ru

Погода и климат >> Архив погоды >> Россия >> Ленинградская область >> Рощино


ПОГОДА в Рощино

  • Прогноз погоды в Рощино
  • Монитор погоды в Рощино
  • Климат города

АРХИВ ПОГОДЫ в Рощино

Время (UTC), дата Ветер
(напр.,м/с)
 
Видим.   Явления Облачность Т
(С)
Тd
(С)
f
(%)
Тe
(С)
Тes
(С)
Комфортность P
(гПа)
Po
(гПа)
Тmin
(С)
Tmax
(С)
R
(мм)
R24
(мм)
S
(см)
00 8.12 Ю 4 н/о н/о -2.8 -3.5 95 -9 -9 1004.2 992.1
03 8.12 Ю 4 н/о н/о -3.3 -3.6 98 -10 -10 1002.3 990.2
06 8.12 Ю 3 н/о н/о -3.0 -3.6 96 -8 -8 1001.9 989.8 -3.3 1
09 8.12 ЮВ 4 н/о н/о -2.8 -3.6 94 -9 -9 1000.9 988.8
12 8.12 ЮВ 5 н/о н/о -2.5 -4.0 89 -9 -9 999.5 987.4
15 8.12 ЮВ 4 н/о н/о -2.7 -4.1 90 -9 -9 998.2 986.1 0.7
18 8.12 Ю 5 н/о н/о -2.6 -3.2 96 -9 -9 997.2 985.2 -2.4 3
21 8.12 н/о н/о
00 9.12 н/о н/о
03 9.12 н/о н/о
06 9.12 н/о н/о
09 9.12 н/о н/о
12 9.12 н/о н/о
15 9.12 ЮВ 4 н/о н/о -1.6 -2.2 96 -8 -8 998.1 986.1
18 9.12 ЮВ 3 н/о н/о -1.7 -2.3 96 -7 -7 998.4 986.4
21 9.12 н/о н/о
00 10.12 н/о н/о
03 10.12 ЮВ 2 н/о н/о -1.7 -2.6 94 -6 -6 998.2 986.2
06 10.12 В 2 н/о н/о -1.9 -2.5 96 -6 -6 998.7 986.7
09 10.12 В 2 н/о н/о -1.6 -2.5 94 -6 -6 999.6 987.6
12 10.12 В 1 н/о н/о -1.6 -2.5 94 -4 -4 1000.6 988.6
15 10.12 В 2 н/о н/о -1.9 -2.7 94 -6 -6 1002.3 990.2
18 10.12 В 2 н/о н/о -2.2 -3.0 94 -6 -6 1003.8 991.7 -1.5
21 10.12 н/о н/о
00 11.12 н/о н/о
03 11.12 н/о н/о
06 11.12 н/о н/о
09 11.12 н/о н/о
12 11.12 н/о н/о
15 11.12 С 3 н/о н/о -1.0 -1.5 96 -6 -6 1015.3 1003.1
18 11.12 С 3 н/о н/о -2.5 -2.8 98 -8 -8 1017.3 1005.0
21 11.12 С 2 н/о н/о -3.0 -3.3 98 -7 -7 1018.9 1006.6
00 12.12 С 2 н/о н/о -2.9 -3.4 96 -7 -7 1020.4 1008.1
03 12.12 С 2 н/о н/о -3.1 -3.7 96 -7 -7 1022.4 1010.0 -3.1
06 12.12 С 2 н/о н/о -4.1 -4.9 94 -8 -8 1024.1 1011.7 -4.1
09 12.12 С 2 н/о н/о -5.1 -5.9 94 -10 -10 1025.7 1013.2
12 12.12 С 3 н/о н/о -5.0 -5.6 96 -11 -11 1026.8 1014.3
15 12.12 С 3 н/о н/о -4.5 -5.3 94 -10 -10 1027.3 1014.8
18 12.12 С 3 н/о н/о -3.4 -4.0 96 -9 -9 1028.2 1015.8 -3.4
21 12.12 н/о н/о
00 13.12 н/о н/о
03 13.12 н/о н/о
06 13.12 н/о н/о
09 13.12 н/о н/о
12 13.12 н/о н/о
15 13.12 н/о н/о
18 13.12 н/о н/о
21 13.12 СВ 1 н/о н/о -2.9 -4.7 87 -5 -5 1033.9 1021.4
00 14.12 СВ 1 н/о н/о -3.1 -4.4 91 -5 -5 1034.0 1021.5
03 14.12 С 1 н/о н/о -3.6 -4.6 93 -6 -6 1033.8 1021.3
06 14.12 С 1 н/о н/о -4.3 -4.8 96 -7 -7 1034.3 1021.7 -4.3
09 14.12 СВ 2 н/о н/о -3.9 -5.3 90 -8 -8 1035.1 1022.5
12 14.12 С 1 н/о н/о -4.0 -5.1 92 -6 -6 1035.1 1022.5
15 14.12 С 1 н/о н/о -4.2 -4.8 96 -7 -7 1035.4 1022.8
18 14.12 С 1 н/о н/о -4.6 -5.2 96 -7 -7 1036.0 1023.4 -3.6
21 14.12 н/о н/о

 

Местоположение метеостанции Рощино (Ленинградская область, Россия): широта 60.25 долгота 29.63 высота над уровнем моря 97 м.

В архиве по умолчанию представлена погода в Рощино за последнюю неделю. Архивные данные за месяц целиком и за предыдущие месяцы, начиная с января 2011 года, Вы можете получить, выбрав интересующий диапазон дат из раскрывающегося списка и нажав кнопку "Ввод!".


*Определитесь, кто Вы:
робот инопланетянин человек

Внимание! Время в таблицах - всемирное. Для получения местного времени необходимо прибавить поправку, которая в Рощино равна 3 ч.

Смотрите также архив погоды в соседних городах и на ближайших метеорологических станциях:

Погода в Кронштадте (город Санкт-Петербург, Россия) (31 км)
Погода в Лисьем Носу (город Санкт-Петербург, Россия) (32 км)
Погода в Озерках (Ленинградская область, Россия) (35 км)
Погода в Ломоносове (город Санкт-Петербург, Россия) (38 км)
Погода в Санкт-Петербурге (город Санкт-Петербург, Россия) (48 км)
Погода в Шепелево (Ленинградская область, Россия) (49 км)
Погода в Сосново (Ленинградская область, Россия) (51 км)
Погода в Сосновом Бору (Ленинградская область, Россия) (54 км)
Погода в Воейково (город Санкт-Петербург, Россия) (68 км)
Погода в Выборге (Ленинградская область, Россия) (72 км)

Пояснения к столбцам:

Ветер - указаны скорость ветра в м/с - средняя за 10 мин, порывы в срок и между сроками (в фигурных скобках) и направление, откуда дует ветер: С - северный, СВ - северо-восточный, В - восточный, ЮВ - юго-восточный, Ю - южный, ЮЗ - юго-западный, З - западный, СЗ - северо-западный.
Видимость - горизонтальная дальность видимости в метрах или километрах. При видимости от 1 до 10 км при отсутствии осадков обычно наблюдается дымка, при ухудшении видимости до 1 км и менее - туман. В сухую погоду видимость может ухудшаться дымом, пылью или мглою.
Явления - указаны атмосферные явления, наблюдавшиеся в срок или в последний час перед сроком; фигурными скобками обозначены явления, наблюдавшиеся между сроками (за 1-3 часа до срока); квадратными скобками обозначены град или гололедные отложения с указанием их диаметра в мм.
Облачность - указаны через наклонную черту общая и нижняя облачность в баллах и высота нижней границы облаков в метрах; квадратными скобками обозначены формы облаков: Ci - перистые, Cs - перисто-слоистые, Cc - перисто-кучевые, Ac - высококучевые, As - высокослоистые, Sc - слоисто-кучевые, Ns - слоисто-дождевые, Cu - кучевые, Cb - кучево-дождевые. Подробнее классификацию облаков см. в Атласе облаков (PDF).
T - Температура воздуха - температура, измеренная на высоте 2 м над землей.
Td - Температура точки росы - температура, при понижении до которой содержащийся в воздухе водяной пар достигнет насыщения.
f - Относительная влажность воздуха - влажноcть воздуха, измеренная на высоте 2 м над землей.
Te - Эффективная температура - температура, которую ощущает одетый по сезону человек в тени. Характеристика душности погоды. При расчете учитывается влияние влажности воздуха и скорости ветра на теплоощущения человека.
Tes - Эффективная температура на солнце - температура, которую ощущает человек, с поправкой на солнечный нагрев. Характеристика знойности погоды. Зависит от высоты солнца над горизонтом, облачности и скорости ветра. Ночью, в пасмурную погоду, а также при ветре 12 м/с и более поправка равна нулю.
P - Атмосферное давление - приведенное к уровню моря атмосферное давление.
Po - Атмосферное давление - измеренное на уровне метеостанции атмосферное давление.
Tmin - Минимальная температура - минимум температуры воздуха на высоте 2 м над землей.
Tmax - Максимальная температура - максимум температуры воздуха на высоте 2 м над землей.
R - Количество осадков - Количество выпавших осадков за период времени, мм. При наведении курсора мыши на число - период времени, за который выпало указанное количество осадков.
R24 - Количество осадков - Количество выпавших осадков за 24 часа, мм.
S - Снежный покров - Высота снежного покрова, см. При наведении курсора мыши на число - состояние снежного покрова и степень покрытия местности в баллах.